Grafton, ND

5:42 AM CST on December 13, 2017 (GMT -0600)
Grafton Municipal

Weather History for KGAF - January, 2014

Change the Weather History Date:

Friday, January 24, 2014

  Actual Average Record
Temperature  
Mean Temperature 18 °F -  
Max Temperature 32 °F 15 °F 44 °F (1973)
Min Temperature 5 °F 0 °F -40 °F (1966)
Degree Days  
Heating Degree Days 46    
Moisture  
Dew Point 18 °F    
Average Humidity 81    
Maximum Humidity 93    
Minimum Humidity 56    
Precipitation  
Precipitation 0.00 in - - ()
Sea Level Pressure  
Sea Level Pressure 29.66 in    
Wind  
Wind Speed 15 mph (NW)    
Max Wind Speed 30 mph    
Max Gust Speed 40 mph    
Visibility 9 miles    
Events Rain , Snow    
Averages and records for this station are not official NWS values.
T = Trace of Precipitation, MM = Missing Value Source: NWS Daily Summary

Daily Weather History Graph

Daily Weather History Graph

Search for Another Location

Airport or City:

Trip Planner

Search our weather history database for the weather conditions in past years. The results will help you decide how hot, cold, wet, or windy it might be!

Date:

Astronomy

Jan. 24, 2014 Rise Set
Actual Time 8:07 AM CST 5:15 PM CST
Civil Twilight 7:33 AM CST 5:50 PM CST
Nautical Twilight 6:55 AM CST 6:28 PM CST
Astronomical Twilight 6:18 AM CST 7:05 PM CST
Moon 1:29 AM CST (1/24) 11:40 AM CST (1/24)
Length of Visible Light 10h 16m
Length of Day
9h 08m
Last Quarter, 44% of the Moon is Illuminated
Jan 24
Last Quarter
Jan 30
New
Feb 6
First Quarter
Feb 14
Full
Feb 22
Last Quarter

Hourly Weather History & Observations

Time (CST) Temp. Windchill Dew Point Humidity Pressure Visibility Wind Dir Wind Speed Gust Speed Precip Events Conditions
12:15 AM 26.6 °F 13.8 °F 23.0 °F 86% 29.69 in 10.0 mi WNW 17.3 mph - N/A   Overcast
12:35 AM 28.4 °F 17.0 °F 23.0 °F 80% 29.69 in 10.0 mi WNW 15.0 mph - N/A   Overcast
12:55 AM 28.4 °F 15.8 °F 23.0 °F 80% 29.68 in 10.0 mi WNW 18.4 mph 23.0 mph N/A   Overcast
1:15 AM 28.4 °F 15.8 °F 23.0 °F 80% 29.67 in 10.0 mi WNW 18.4 mph 26.5 mph N/A   Mostly Cloudy
1:35 AM 26.6 °F 14.7 °F 23.0 °F 86% 29.67 in 10.0 mi NW 15.0 mph - N/A   Mostly Cloudy
1:55 AM 26.6 °F 14.7 °F 23.0 °F 86% 29.68 in 10.0 mi NW 15.0 mph 21.9 mph N/A   Mostly Cloudy
2:15 AM 26.6 °F 15.2 °F 23.0 °F 86% 29.68 in 10.0 mi NW 13.8 mph - N/A   Overcast
2:35 AM 26.6 °F 15.2 °F 23.0 °F 86% 29.68 in 10.0 mi NW 13.8 mph - N/A   Overcast
2:55 AM 26.6 °F 15.2 °F 23.0 °F 86% 29.69 in 10.0 mi NW 13.8 mph - N/A   Overcast
3:15 AM 26.6 °F 16.2 °F 23.0 °F 86% 29.69 in 10.0 mi NW 11.5 mph - N/A   Overcast
3:35 AM 26.6 °F 16.8 °F 23.0 °F 86% 29.69 in 10.0 mi WNW 10.4 mph - N/A   Overcast
3:55 AM 26.6 °F 15.2 °F 23.0 °F 86% 29.69 in 10.0 mi WNW 13.8 mph - N/A   Overcast
4:15 AM 26.6 °F 15.2 °F 23.0 °F 86% 29.69 in 10.0 mi NW 13.8 mph - N/A   Overcast
4:35 AM 26.6 °F 15.2 °F 23.0 °F 86% 29.68 in 10.0 mi WNW 13.8 mph - N/A   Overcast
4:55 AM 26.6 °F 15.7 °F 23.0 °F 86% 29.69 in 10.0 mi WNW 12.7 mph - N/A   Overcast
5:15 AM 26.6 °F 15.7 °F 23.0 °F 86% 29.68 in 10.0 mi WNW 12.7 mph - N/A   Overcast
5:35 AM 26.6 °F 16.2 °F 23.0 °F 86% 29.67 in 10.0 mi West 11.5 mph - N/A   Overcast
5:55 AM 26.6 °F 15.2 °F 23.0 °F 86% 29.67 in 10.0 mi WNW 13.8 mph - N/A   Overcast
6:15 AM 26.6 °F 14.7 °F 23.0 °F 86% 29.66 in 10.0 mi WNW 15.0 mph - N/A   Overcast
6:35 AM 26.6 °F 14.3 °F 21.2 °F 80% 29.66 in 10.0 mi NW 16.1 mph - N/A   Overcast
6:55 AM 24.8 °F 12.4 °F 21.2 °F 86% 29.66 in 10.0 mi NW 15.0 mph 19.6 mph N/A   Overcast
7:15 AM 24.8 °F 12.9 °F 21.2 °F 86% 29.65 in 10.0 mi NW 13.8 mph - N/A   Overcast
7:35 AM 24.8 °F 12.9 °F 21.2 °F 86% 29.66 in 10.0 mi WNW 13.8 mph - N/A   Overcast
7:55 AM 24.8 °F 13.4 °F 21.2 °F 86% 29.64 in 10.0 mi WNW 12.7 mph - N/A   Overcast
8:15 AM 26.6 °F 15.2 °F 21.2 °F 80% 29.64 in 10.0 mi WNW 13.8 mph - N/A   Overcast
8:35 AM 26.6 °F 17.5 °F 21.2 °F 80% 29.62 in 10.0 mi WNW 9.2 mph - N/A   Overcast
8:55 AM 26.6 °F 16.8 °F 23.0 °F 86% 29.62 in 10.0 mi WNW 10.4 mph - N/A   Overcast
9:15 AM 26.6 °F 18.2 °F 23.0 °F 86% 29.62 in 10.0 mi WNW 8.1 mph - N/A   Overcast
9:35 AM 26.6 °F 16.8 °F 23.0 °F 86% 29.60 in 10.0 mi West 10.4 mph - N/A   Overcast
9:55 AM 26.6 °F 16.8 °F 23.0 °F 86% 29.59 in 10.0 mi West 10.4 mph - N/A   Overcast
10:15 AM 26.6 °F 17.5 °F 23.0 °F 86% 29.59 in 10.0 mi WSW 9.2 mph - N/A   Overcast
10:35 AM 26.6 °F 17.5 °F 23.0 °F 86% 29.57 in 10.0 mi WSW 9.2 mph - N/A   Overcast
10:55 AM 26.6 °F 17.5 °F 23.0 °F 86% 29.55 in 10.0 mi WSW 9.2 mph - N/A   Overcast
11:15 AM 26.6 °F 18.2 °F 23.0 °F 86% 29.55 in 9.0 mi WSW 8.1 mph - N/A   Overcast
11:35 AM 28.4 °F 19.1 °F 24.8 °F 86% 29.55 in 10.0 mi WNW 10.4 mph - N/A   Overcast
11:55 AM 32.0 °F 22.1 °F 24.8 °F 75% 29.54 in 10.0 mi WNW 13.8 mph 18.4 mph N/A   Overcast
12:15 PM 32.0 °F 22.5 °F 26.6 °F 80% 29.53 in 10.0 mi WNW 12.7 mph - N/A   Overcast
12:35 PM 32.0 °F 20.8 °F 28.4 °F 87% 29.52 in 2.5 mi NW 17.3 mph - N/A Snow Light Snow
12:55 PM 32.0 °F 21.2 °F 28.4 °F 87% 29.52 in 1.8 mi NW 16.1 mph - N/A Snow Light Snow
1:15 PM 32.0 °F 21.6 °F 30.2 °F 93% 29.52 in 4.0 mi NW 15.0 mph - N/A Snow Light Snow
1:35 PM 32.0 °F 21.2 °F 28.4 °F 87% 29.51 in 7.0 mi NW 16.1 mph - N/A Snow Light Snow
1:55 PM 32.0 °F 21.6 °F 28.4 °F 87% 29.51 in 10.0 mi NW 15.0 mph 21.9 mph N/A   Mostly Cloudy
2:15 PM 32.0 °F 21.6 °F 28.4 °F 87% 29.51 in 10.0 mi NW 15.0 mph - N/A   Overcast
2:35 PM 32.0 °F 21.2 °F 26.6 °F 80% 29.52 in 10.0 mi NNW 16.1 mph - N/A   Overcast
2:55 PM 32.0 °F 22.5 °F 28.4 °F 87% 29.51 in 10.0 mi NNW 12.7 mph 20.7 mph N/A   Overcast
3:15 PM 32.0 °F 22.1 °F 26.6 °F 80% 29.52 in 10.0 mi NNW 13.8 mph 20.7 mph N/A   Overcast
3:35 PM 32.0 °F 18.9 °F 28.4 °F 87% 29.53 in 9.0 mi NNW 24.2 mph 31.1 mph N/A   Overcast
3:55 PM 32.0 °F 17.6 °F 28.4 °F 87% 29.55 in 3.0 mi North 29.9 mph 40.3 mph N/A Rain Light Rain
4:15 PM 28.4 °F 13.8 °F 26.6 °F 93% 29.56 in 4.0 mi North 25.3 mph 34.5 mph N/A Rain Light Freezing Rain
4:35 PM 28.4 °F 13.0 °F 23.0 °F 80% 29.58 in 3.0 mi North 28.8 mph 40.3 mph N/A Rain Light Freezing Rain
4:55 PM 26.6 °F 11.1 °F 19.4 °F 74% 29.60 in 3.0 mi North 26.5 mph 38.0 mph N/A Rain Light Freezing Rain
5:15 PM 24.8 °F 9.0 °F 21.2 °F 86% 29.62 in 2.0 mi North 25.3 mph 34.5 mph N/A Rain Light Freezing Rain
5:35 PM 24.8 °F 9.6 °F 19.4 °F 80% 29.64 in 7.0 mi North 23.0 mph 32.2 mph N/A   Overcast
5:55 PM 23.0 °F 6.6 °F 19.4 °F 86% 29.66 in 9.0 mi North 25.3 mph 35.7 mph N/A   Overcast
6:15 PM 19.4 °F 3.2 °F 15.8 °F 86% 29.68 in 10.0 mi North 20.7 mph 29.9 mph N/A   Overcast
6:35 PM 17.6 °F 0.9 °F 14.0 °F 86% 29.70 in 10.0 mi North 20.7 mph 28.8 mph N/A   Overcast
6:55 PM 17.6 °F 3.2 °F 12.2 °F 79% 29.72 in 10.0 mi North 15.0 mph - N/A   Partly Cloudy
7:15 PM 15.8 °F 2.1 °F 10.4 °F 79% 29.74 in 10.0 mi North 12.7 mph - N/A   Clear
7:35 PM 14.0 °F 0.5 °F 10.4 °F 86% 29.75 in 10.0 mi North 11.5 mph - N/A   Partly Cloudy
7:55 PM 14.0 °F -0.8 °F 8.6 °F 79% 29.77 in 10.0 mi North 13.8 mph 18.4 mph N/A   Mostly Cloudy
8:15 PM 14.0 °F -4.3 °F 5.0 °F 67% 29.78 in 10.0 mi North 21.9 mph 29.9 mph N/A   Overcast
8:35 PM 10.4 °F -8.6 °F -0.4 °F 62% 29.79 in 10.0 mi North 20.7 mph 26.5 mph N/A   Scattered Clouds
8:55 PM 8.6 °F -9.5 °F -0.4 °F 67% 29.80 in 10.0 mi North 17.3 mph - N/A   Scattered Clouds
9:15 PM 8.6 °F -8.9 °F -2.2 °F 62% 29.81 in 10.0 mi North 16.1 mph 23.0 mph N/A   Clear
9:35 PM 6.8 °F -10.7 °F -2.2 °F 67% 29.81 in 10.0 mi North 15.0 mph - N/A   Clear
9:55 PM 6.8 °F -10.0 °F -4.0 °F 61% 29.82 in 10.0 mi North 13.8 mph - N/A   Clear
10:15 PM 6.8 °F -8.6 °F -4.0 °F 61% 29.83 in 10.0 mi NNW 11.5 mph - N/A   Clear
10:35 PM 5.0 °F -10.0 °F -4.0 °F 66% 29.84 in 10.0 mi NNW 10.4 mph - N/A   Clear
10:55 PM 5.0 °F -11.6 °F -5.8 °F 61% 29.84 in 10.0 mi NNW 12.7 mph - N/A   Clear
11:15 PM 5.0 °F -15.2 °F -7.6 °F 56% 29.84 in 10.0 mi NNW 19.6 mph 27.6 mph N/A   Clear
11:35 PM 5.0 °F -11.6 °F -7.6 °F 56% 29.86 in 10.0 mi NW 12.7 mph - N/A   Clear
11:55 PM 6.8 °F -13.8 °F -5.8 °F 56% 29.86 in 10.0 mi NNW 21.9 mph 33.4 mph N/A   Clear